Regional Weather Roundup
Issued by NWS Midland/Odessa, TX

Skip options and go directly to product.
Home | Oldest Version | Previous Version | Current Version | All | Text Only | Save Text | Print | Product List | Glossary On

Skip product version selection by date and time.   
470
ASUS44 KMAF 290802
RWRMAF
MIDLAND AREA WEATHER ROUNDUP
NATIONAL WEATHER SERVICE MIDLAND TX
300 AM CDT FRI AUG 29 2014

...IN SOUTHWEST TEXAS AND SOUTHEAST NEW MEXICO...

CITY           SKY/WX    TMP DP  RH WIND       PRES   REMARKS
ALPINE         CLEAR     72  57  58 W9        30.09F
ANDREWS        FAIR      69  65  88 E12G20    29.96F
ARTESIA        NOT AVBL
BIG SPRING     PTCLDY    72  67  84 NE15      29.96F
CARLSBAD       CLEAR     71  50  47 W7        29.93F
DRYDEN           N/A     84  59  42 SE7       29.88S
FORT STOCKTON  CLEAR     75  62  64 S9        29.92F
GUAD PASS      CLEAR     74  39  28 NE12      30.12S
HOBBS          PTCLDY    70  59  68 E10       29.97F
MARFA          CLOUDY    63  55  77 N5        30.09F
MIDLAND AIRPK  NOT AVBL
MIDLAND INTL   PTCLDY    73  66  78 E15       29.93F
ODESSA         PTCLDY    74  64  71 E15       29.94R
PECOS          PTCLDY    71  65  82 SW3       29.89S
PRESIDIO       FAIR      76  64  67 MISG      29.93S
SEMINOLE       CLEAR     69  64  83 SE8       29.97F
SNYDER         CLOUDY    70  66  88 S18       29.93F
WINK           PTCLDY    79  59  50 CALM      29.89S
$$
...OTHER STATIONS IN TEXAS...

CITY           SKY/WX    TMP DP  RH WIND       PRES   REMARKS
ABILENE        TSTM      71  68  90 SE22      29.93F
AMARILLO       CLOUDY    64  62  93 S5        30.03S FOG
AUSTIN         PTCLDY    75  72  90 S3        29.89F
BROWNSVILLE    PTCLDY    81  75  82 S10       29.79F
CORPUS CHRISTI PTCLDY    83  77  82 E12       29.82F
DALLAS FTW     CLOUDY    75  66  73 NW15      29.94R
DEL RIO        CLEAR     83  70  64 SE7       29.85S
EL PASO        CLEAR     76  54  46 CALM      29.99F
HOUSTON INT    LGT RAIN  79  77  94 CALM      29.89S
LUBBOCK        CLOUDY    67  64  90 SE10      29.96F
SAN ANGELO     PTCLDY    77  68  73 N13       29.94R
SAN ANTONIO    MOCLDY    79  74  84 E10       29.90F
WACO           MOCLDY    79  70  74 S12       29.91R
WICHITA FALLS  NOT AVBL
$$
...OTHER LOCATIONS IN NEW MEXICO...

CITY           SKY/WX    TMP DP  RH WIND       PRES   REMARKS
ALAMAGORDO     CLEAR     64  46  52 CALM      30.03S
ALBUQUERQUE    CLEAR     69  43  38 NW8       30.14F
CANNON AFB     CLEAR     64  61  91 NE13      30.04F
CLOVIS           N/A     64  57  77 NE12      30.07R
HOLLOMAN AFB   CLEAR     66  48  51 NW6       30.01S
ROSWELL        CLEAR     71  48  43 NW12      29.98S
RUIDOSO        CLEAR     59  41  51 CALM      30.23F
SANTA FE       PTCLDY    58  45  62 E6        30.20S
TRUTH OR CONSE CLEAR     68  46  45 NW7       30.09S
TUCUMCARI      CLEAR     66  50  56 NE9       30.06F
$$

USA.gov is the U.S. government's official web portal to all federal, state and local government web resources and services.